Regional Weather Roundup
Issued by NWS Albany, NY

Home | Current Version | Previous Version | Text Only | Print | Product List | Glossary On
Versions: 1 2 3 4 5 6 7 8 9 10 11 12 13 14 15 16 17 18 19 20 21 22 23 24 25 26 27
000
ASUS41 KALY 040010
RWRALY

NEW YORK STATE HOURLY WEATHER ROUNDUP
NATIONAL WEATHER SERVICE ALBANY NY
800 PM EDT TUE MAY 03 2016

NOTE: "FAIR" INDICATES FEW OR NO CLOUDS BELOW 12,000 FEET WITH NO
SIGNIFICANT WEATHER AND/OR NO OBSTRUCTIONS TO VISIBILITY.

NYZ032-033-038>043-046>054-057>066-NYZ062>081-082-084-040100-
EAST


CITY           SKY/WX    TMP DP  RH WIND       PRES   REMARKS
ALBANY         CLOUDY    54  41  61 CALM      29.83R
GLENS FALLS    CLOUDY    55  38  52 NE5       29.82S
POUGHKEEPSIE   CLOUDY    53  50  89 CALM      29.83R FOG
NEWBURGH       CLOUDY    52  50  93 NE6       29.83R FOG
MONTGOMERY     LGT RAIN  51  50  96 N5        29.83R
WHITE PLAINS   FOG       49  48  97 SE5       29.83R VSB 1/2
ISLIP          CLOUDY    51  48  89 E3        29.84R
NEW YORK CITY  DRIZZLE   52  52 100 NE7       29.84R FOG
CENTRAL PARK   CLOUDY    52  49  89 E5        29.86R FOG
$$

NYZ005>009-017-018-044>046-055-056-040100-
CENTRAL


CITY           SKY/WX    TMP DP  RH WIND       PRES   REMARKS
FULTON         CLOUDY    54  41  61 CALM      29.81S
SYRACUSE       CLOUDY    55  40  56 CALM      29.79S
ROME           CLOUDY    54  44  69 SE6       29.81R
ELMIRA         CLOUDY    53  44  71 SE3       29.80R
BINGHAMTON     CLOUDY    47  46  97 S3        29.80R
MONTICELLO     CLOUDY    46  45  93 E5        29.84R
$$

NYZ026>034-041>043-087-040100-
NORTH


CITY           SKY/WX    TMP DP  RH WIND       PRES   REMARKS
WATERTOWN      CLOUDY    52  40  63 SW8       29.80R
FORT DRUM      NOT AVBL
MASSENA        CLEAR     53  35  50 NE9       29.83S
SARANAC LAKE   CLEAR     46  35  65 NE9       29.79R
PLATTSBURGH    NOT AVBL
$$

NYZ001>004-010>016-019>021-085-040100-
WEST


CITY           SKY/WX    TMP DP  RH WIND       PRES   REMARKS
NIAGARA FALLS  MOCLDY    56  39  53 N6        29.79S
BUFFALO        MOCLDY    53  41  63 SW10      29.80R
DUNKIRK        CLOUDY    47  39  74 SW7       29.83R
JAMESTOWN      CLOUDY    48  41  76 W3        29.81R
WELLSVILLE     CLOUDY    50  42  74 N3        29.80S
ROCHESTER      CLOUDY    53  37  54 N5        29.80S
PENN YAN       CLOUDY    53  41  63 CALM      29.80S
$$

             KEY
       WCI = WIND CHILL INDEX
       VSB = VISIBILITY
       HX  = HEAT INDEX
$$




USA.gov is the U.S. government's official web portal to all federal, state and local government web resources and services.